Regional Weather Roundup
Issued by NWS

Home | Current Version | Previous Version | Text Only | Print | Product List | Glossary Off
Versions: 1 2 3 4 5 6 7 8 9 10 11 12 13 14 15 16 17 18 19 20 21 22 23 24 25 26 27 28 29 30 31 32 33 34 35 36 37 38 39 40 41 42 43 44 45 46 47 48 49 50

000
ASUS45 KCYS 260210
RWRWY

WYOMING REGIONAL WEATHER ROUNDUP
NATIONAL WEATHER SERVICE CHEYENNE WY
800 PM MDT MON SEP 25 2017

NOTE:  "FAIR" INDICATES FEW OR NO CLOUDS BELOW 12,000 FEET
WITH NO SIGNIFICANT WEATHER AND/OR OBSTRUCTIONS TO VISIBILITY.

WYZ001-260300-
YELLOWSTONE NATIONAL PARK

CITY           SKY/WX    TMP DP  RH WIND       PRES   REMARKS
LK YELLOWSTONE NOT AVBL
W YELLOWSTONE  NOT AVBL

$$
WYZ002>013-054>058-071-098>099-260300-
NORTHERN WYOMING

CITY           SKY/WX    TMP DP  RH WIND       PRES   REMARKS
JACKSON        CLOUDY    41  27  57 S6        30.16R
CODY           CLOUDY    47  38  71 S7        30.09S
GREYBULL       MOCLDY    49  41  74 CALM      30.07S
WORLAND        CLOUDY    48  42  80 CALM      30.08R
SHERIDAN       CLOUDY    47  42  83 SW3       30.08S
BUFFALO        CLOUDY    45  38  76 SW5       30.11R
GILLETTE       MOCLDY    40  38  93 CALM      30.09R
HULETT         MOCLDY    43  41  93 CALM      30.12R
NEWCASTLE      FAIR      45  37  76 N6        30.09R

$$
WYZ014>020-022>026-101>103-260300-
CENTRAL WYOMING

CITY           SKY/WX    TMP DP  RH WIND       PRES   REMARKS
BIG PINEY      FAIR      34  29  82 NW9       30.16R WCI  27
PINEDALE       FAIR      36  30  80 NW8       30.16S WCI  29
DUBOIS         CLOUDY    37  28  70 W16       30.13S WCI  28
LANDER         CLOUDY    45  37  73 SW8       30.09R
RIVERTON       CLOUDY    47  36  65 E3        30.10R
CASPER         CLOUDY    43  36  76 SW7       30.10R
DOUGLAS        MOCLDY    45  39  79 S6        30.10R

$$
WYZ021-027>030-104>119-260300-
SOUTHERN WYOMING

CITY           SKY/WX    TMP DP  RH WIND       PRES   REMARKS
EVANSTON       CLOUDY    42  32  67 N9        30.16R
FORT BRIDGER   FAIR      40  32  73 NW5       30.19S
ROCK SPRINGS   CLOUDY    42  30  62 SW8       30.14R
DIXON          FAIR      40  32  74 N6        30.16R
RAWLINS        FAIR      40  31  70 CALM      30.13R
SARATOGA       FAIR      37  32  81 SW5       30.14S WCI  34
LARAMIE        MOCLDY    41  32  70 N8        30.13R
CHEYENNE       CLOUDY    39  37  92 CALM      30.13R
TORRINGTON     LGT RAIN  48  43  82 S8        30.09R
PINE BLUFFS    MOCLDY    43  39  87 MISG      30.14R

$$



USA.gov is the U.S. government's official web portal to all federal, state and local government web resources and services.